Location: Unspecified
(43.4354°N, 0.0000°E)
Time: 14:13:34
(UTC+00:00)

Vanguard 2 Rocket - Pass Details

Date: 18 June 2019
Orbit: 554 x 3326 km, 32.9° (Epoch: 22 July)

Event Time Altitude Azimuth Distance (km) Brightness Sun altitude
Rises 01:22:22 0° 261° (W) 5,407 10.6 -20.6°
Reaches altitude 10° 01:25:28 10° 258° (WSW) 4,719 10.2 -20.4°
Maximum altitude 01:39:37 58° 184° (S) 3,312 9.3 -19.4°
Drops below altitude 10° 01:59:07 10° 113° (ESE) 6,273 11.2 -17.9°
Sets 02:04:01 0° 110° (ESE) 7,219 11.6 -17.4°
